"Pseudo-MPEC" for SWC0796

Created 2024 Aug 18 10:22:08 UT using Find_Orb

Click here for an explanation of pseudo-MPECs

 
 Astrometry: 
     SWC0796*KB2024 07 29.11931520 30 19.788-18 13 14.44   ~85GM       ZNEOCPY05
     SWC0796 KB2024 07 29.13336620 30 19.657-18 13 08.42   ~85GM 20.7 VZNEOCPY05
     SWC0796 KB2024 07 29.14671920 30 19.562-18 13 03.30   ~85GM 20.6 VZNEOCPY05

Station data:
(Y05) SONEAR Wykrota-CEAMIG, Serra da Piedade  (S19.824251 W43.690000)
   Brazil.  Observer C. Jacques. 0.45-m f/2.9 reflector + CMO.

Orbital elements:  SWC0796
   Perihelion 2024 May 28.93893 +/- 49 TT = 22:32:03 (JD 2460459.43893)
Epoch 2024 Jul 29.0 TT = JDT 2460520.5   Earth MOID: 0.0309   Ju: 0.0788
M   3.38782091 +/- 17               Ma: 0.0505   Sa: 0.4658      AutoNEOCP
n   0.05548249 +/- 0.145            Peri.  298.32136 +/- 57
a   6.80819591 +/- 11.9             Node   301.71521 +/- 41
e   0.8538752 +/- 0.248             Incl.    2.52396 +/- 1.8
P  17.76430                H 22.10  G  0.15   U 11.4  SR
q 0.99484606 +/- 0.385    Q 12.6215457 +/- 81.9           (J2000 ecliptic)
From 3 observations 2024 July 29 (39.5 min); mean residual 0".13
Residuals in arcseconds: 
240729 Y05  .07+  .11-    240729 Y05  .14-  .22+    240729 Y05  .07+  .11-    

Ephemerides (geocentric):
Date (UTC) HH   RA             Dec           delta  r     elong  mag " sig PA
---- --------  ------------   ------------  ------ ------ -----  --- --------
2024 08 18 10  20 32 45.557   -16 47 13.47  .58595 1.5769 160.6 22.7  53d  96
2024 08 18 11  20 32 46.216   -16 47 06.32  .58649 1.5773 160.6 22.7  53d  96
2024 08 18 12  20 32 46.876   -16 46 59.19  .58704 1.5778 160.5 22.7  53d  96
2024 08 18 13  20 32 47.538   -16 46 52.06  .58758 1.5782 160.5 22.7  53d  96
2024 08 18 14  20 32 48.201   -16 46 44.93  .58812 1.5787 160.5 22.7  53d  96
2024 08 18 15  20 32 48.866   -16 46 37.81  .58867 1.5791 160.4 22.7  53d  96
2024 08 18 16  20 32 49.534   -16 46 30.70  .58921 1.5795 160.4 22.7  53d  96
2024 08 18 17  20 32 50.202   -16 46 23.60  .58976 1.5800 160.3 22.7  53d  96
2024 08 18 18  20 32 50.873   -16 46 16.50  .59030 1.5804 160.3 22.7  53d  96
2024 08 18 19  20 32 51.545   -16 46 09.40  .59085 1.5809 160.3 22.7  53d  97
2024 08 18 20  20 32 52.219   -16 46 02.32  .59139 1.5813 160.2 22.7  53d  97
2024 08 18 21  20 32 52.895   -16 45 55.24  .59194 1.5818 160.2 22.7  53d  97
2024 08 18 22  20 32 53.572   -16 45 48.16  .59248 1.5822 160.2 22.7  53d  97
2024 08 18 23  20 32 54.251   -16 45 41.10  .59303 1.5826 160.1 22.7  53d  97
2024 08 19 00  20 32 54.932   -16 45 34.03  .59358 1.5831 160.1 22.7  53d  97
2024 08 19 01  20 32 55.615   -16 45 26.98  .59412 1.5835 160.1 22.7  53d  97
2024 08 19 02  20 32 56.299   -16 45 19.93  .59467 1.5840 160.0 22.7  53d  97
2024 08 19 03  20 32 56.985   -16 45 12.89  .59522 1.5844 160.0 22.7  53d  97
2024 08 19 04  20 32 57.673   -16 45 05.85  .59576 1.5849 159.9 22.7  53d  97
2024 08 19 05  20 32 58.363   -16 44 58.82  .59631 1.5853 159.9 22.7  54d  97
2024 08 19 06  20 32 59.054   -16 44 51.79  .59686 1.5857 159.9 22.7  54d  97
2024 08 19 07  20 32 59.747   -16 44 44.77  .59741 1.5862 159.8 22.7  54d  97
2024 08 19 08  20 33 00.442   -16 44 37.76  .59796 1.5866 159.8 22.7  54d  98
2024 08 19 09  20 33 01.138   -16 44 30.75  .59851 1.5871 159.8 22.7  54d  98
2024 08 19 10  20 33 01.837   -16 44 23.75  .59906 1.5875 159.7 22.7  54d  98
2024 08 19 11  20 33 02.536   -16 44 16.75  .59960 1.5879 159.7 22.7  54d  98
2024 08 19 12  20 33 03.238   -16 44 09.76  .60015 1.5884 159.6 22.8  54d  98
2024 08 19 13  20 33 03.942   -16 44 02.78  .60070 1.5888 159.6 22.8  54d  98
2024 08 19 14  20 33 04.647   -16 43 55.80  .60125 1.5893 159.6 22.8  55d  98
2024 08 19 15  20 33 05.354   -16 43 48.83  .60181 1.5897 159.5 22.8  55d  98
2024 08 19 16  20 33 06.062   -16 43 41.86  .60236 1.5902 159.5 22.8  55d  98
2024 08 19 17  20 33 06.773   -16 43 34.90  .60291 1.5906 159.5 22.8  55d  98
2024 08 19 18  20 33 07.485   -16 43 27.94  .60346 1.5910 159.4 22.8  55d  98
2024 08 19 19  20 33 08.199   -16 43 20.99  .60401 1.5915 159.4 22.8  55d  98
2024 08 19 20  20 33 08.914   -16 43 14.05  .60456 1.5919 159.4 22.8  55d  98
2024 08 19 21  20 33 09.631   -16 43 07.11  .60511 1.5924 159.3 22.8  55d  98
2024 08 19 22  20 33 10.350   -16 43 00.17  .60567 1.5928 159.3 22.8  55d  98
2024 08 19 23  20 33 11.071   -16 42 53.24  .60622 1.5933 159.2 22.8  55d  98
2024 08 20 00  20 33 11.794   -16 42 46.32  .60677 1.5937 159.2 22.8  55d  98
2024 08 20 01  20 33 12.518   -16 42 39.40  .60733 1.5941 159.2 22.8  55d  98
2024 08 20 02  20 33 13.244   -16 42 32.49  .60788 1.5946 159.1 22.8  55d  98
2024 08 20 03  20 33 13.972   -16 42 25.59  .60843 1.5950 159.1 22.8  56d  98
2024 08 20 04  20 33 14.701   -16 42 18.68  .60899 1.5955 159.1 22.8  56d  98
2024 08 20 05  20 33 15.432   -16 42 11.79  .60954 1.5959 159.0 22.8  56d  98
2024 08 20 06  20 33 16.165   -16 42 04.90  .61010 1.5964 159.0 22.8  56d  98
2024 08 20 07  20 33 16.900   -16 41 58.01  .61065 1.5968 158.9 22.8  56d  98
2024 08 20 08  20 33 17.636   -16 41 51.13  .61121 1.5972 158.9 22.8  56d  98
2024 08 20 09  20 33 18.374   -16 41 44.26  .61176 1.5977 158.9 22.8  56d  98